When you browse on this site, cookies collect data to enhance your experience and personalize the content and advertising you see.
Visit our Privacy Policy to learn more. By continuing to use the site, you agree to this use of cookies and data.
  • In Deutschland
  • Länderverzeichnis
  • Für 7 Tage
  • Wassertemperatur
  • Satellitenkarten
  • Wetterkarte
  • Widgets
  • user-avatar
    Anmelden

    Stündliche Wetter Kipungo

    Heute, 18 Januar, Freitag

    Zeit Temperatur Niederschläge Wind Luftdruck Luftfeuchtigkeit
    00:00 +20°C° 0 mm 2 m/S 652 mmHg 62%
    01:00 +20°C° 0 mm 2 m/S 652 mmHg 60%
    02:00 +20°C° 0 mm 2 m/S 652 mmHg 60%
    03:00 +20°C° 0 mm 1 m/S 652 mmHg 60%
    04:00 +20°C° 0 mm 1 m/S 652 mmHg 59%
    05:00 +21°C° 0 mm 1 m/S 653 mmHg 58%
    06:00 +21°C° 0 mm 1 m/S 653 mmHg 56%
    07:00 +21°C° 0 mm 2 m/S 653 mmHg 54%
    08:00 +24°C° 0 mm 2 m/S 654 mmHg 48%
    09:00 +26°C° 0 mm 2 m/S 654 mmHg 43%
    10:00 +28°C° 0 mm 2 m/S 655 mmHg 38%
    11:00 +29°C° 0 mm 2 m/S 654 mmHg 35%
    12:00 +31°C° 0 mm 2 m/S 654 mmHg 33%
    13:00 +34°C° 0 mm 2 m/S 654 mmHg 30%
    14:00 +33°C° 0 mm 3 m/S 653 mmHg 31%
    15:00 +33°C° 0 mm 3 m/S 653 mmHg 31%
    16:00 +33°C° 0 mm 3 m/S 652 mmHg 32%
    17:00 +30°C° 0 mm 3 m/S 652 mmHg 35%
    18:00 +29°C° 0 mm 2 m/S 652 mmHg 38%
    19:00 +27°C° 0 mm 2 m/S 652 mmHg 40%
    20:00 +26°C° 0 mm 2 m/S 653 mmHg 43%
    21:00 +25°C° 0 mm 2 m/S 653 mmHg 45%
    22:00 +23°C° 0 mm 2 m/S 654 mmHg 47%
    23:00 +21°C° 0.3 mm 2 m/S 653 mmHg 52%

    Morgen, 19 Januar, Samstag

    Zeit Temperatur Niederschläge Wind Luftdruck Luftfeuchtigkeit
    00:00 +21°C° 0.3 mm 2 m/S 653 mmHg 57%
    01:00 +20°C° 0.3 mm 3 m/S 653 mmHg 61%
    02:00 +19°C° 1 mm 2 m/S 653 mmHg 67%
    03:00 +18°C° 1 mm 2 m/S 652 mmHg 74%
    04:00 +17°C° 1 mm 2 m/S 652 mmHg 80%
    05:00 +17°C° 0.4 mm 2 m/S 653 mmHg 80%
    06:00 +17°C° 0.4 mm 2 m/S 653 mmHg 79%
    07:00 +17°C° 0.4 mm 2 m/S 653 mmHg 79%
    08:00 +20°C° 0.1 mm 2 m/S 654 mmHg 69%
    09:00 +24°C° 0.1 mm 2 m/S 655 mmHg 58%
    10:00 +26°C° 0.1 mm 2 m/S 656 mmHg 48%
    11:00 +29°C° 0 mm 2 m/S 656 mmHg 43%
    12:00 +32°C° 0 mm 1 m/S 656 mmHg 37%
    13:00 +34°C° 0 mm 1 m/S 656 mmHg 31%
    14:00 +32°C° 0.3 mm 2 m/S 655 mmHg 40%
    15:00 +29°C° 0.3 mm 3 m/S 653 mmHg 49%
    16:00 +26°C° 0.3 mm 4 m/S 652 mmHg 58%
    17:00 +25°C° 0.5 mm 4 m/S 652 mmHg 63%
    18:00 +24°C° 0.5 mm 3 m/S 652 mmHg 67%
    19:00 +21°C° 0.5 mm 3 m/S 652 mmHg 72%
    20:00 +21°C° 0 mm 3 m/S 653 mmHg 73%
    21:00 +20°C° 0 mm 3 m/S 654 mmHg 75%
    22:00 +20°C° 0 mm 2 m/S 655 mmHg 76%
    23:00 +19°C° 0 mm 2 m/S 654 mmHg 80%

    übermorgen, 20 Januar, Sonntag

    Zeit Temperatur Niederschläge Wind Luftdruck Luftfeuchtigkeit
    00:00 +19°C° 0 mm 2 m/S 654 mmHg 83%
    01:00 +18°C° 0 mm 2 m/S 653 mmHg 87%
    02:00 +18°C° 0 mm 2 m/S 653 mmHg 88%
    03:00 +18°C° 0 mm 2 m/S 653 mmHg 89%
    04:00 +17°C° 0 mm 2 m/S 652 mmHg 90%
    05:00 +19°C° 0 mm 1 m/S 653 mmHg 87%
    06:00 +20°C° 0 mm 1 m/S 653 mmHg 84%
    07:00 +20°C° 0 mm 1 m/S 654 mmHg 80%
    08:00 +22°C° 0 mm 1 m/S 655 mmHg 71%
    09:00 +24°C° 0 mm 1 m/S 655 mmHg 62%
    10:00 +27°C° 0 mm 1 m/S 656 mmHg 52%
    11:00 +29°C° 0 mm 2 m/S 656 mmHg 46%
    12:00 +31°C° 0 mm 2 m/S 655 mmHg 41%
    13:00 +34°C° 0 mm 2 m/S 655 mmHg 35%
    14:00 +31°C° 0 mm 2 m/S 654 mmHg 41%
    15:00 +29°C° 0 mm 2 m/S 654 mmHg 46%
    16:00 +28°C° 0 mm 2 m/S 653 mmHg 52%
    17:00 +26°C° 0.8 mm 2 m/S 653 mmHg 61%
    18:00 +25°C° 0.8 mm 2 m/S 653 mmHg 69%
    19:00 +23°C° 0.8 mm 2 m/S 653 mmHg 78%
    20:00 +23°C° 1.7 mm 2 m/S 654 mmHg 82%
    21:00 +22°C° 1.7 mm 1 m/S 654 mmHg 86%
    22:00 +21°C° 1.7 mm 1 m/S 655 mmHg 90%
    23:00 +21°C° 1.3 mm 1 m/S 654 mmHg 91%

    21 Januar, Montag

    Zeit Temperatur Niederschläge Wind Luftdruck Luftfeuchtigkeit
    00:00 +20°C° 1.3 mm 2 m/S 654 mmHg 92%
    01:00 +19°C° 1.3 mm 2 m/S 654 mmHg 93%
    02:00 +19°C° 0.5 mm 2 m/S 654 mmHg 94%
    03:00 +20°C° 0.5 mm 1 m/S 654 mmHg 94%
    04:00 +20°C° 0.5 mm 1 m/S 653 mmHg 94%
    05:00 +20°C° 0.1 mm 1 m/S 654 mmHg 93%
    06:00 +20°C° 0.1 mm 1 m/S 654 mmHg 92%
    07:00 +21°C° 0.1 mm 1 m/S 654 mmHg 91%
    08:00 +22°C° 0 mm 1 m/S 655 mmHg 84%
    09:00 +24°C° 0 mm 1 m/S 656 mmHg 76%
    10:00 +26°C° 0 mm 1 m/S 656 mmHg 69%
    11:00 +27°C° 0 mm 1 m/S 656 mmHg 63%
    12:00 +28°C° 0 mm 1 m/S 655 mmHg 56%
    13:00 +30°C° 0 mm 1 m/S 655 mmHg 49%
    14:00 +30°C° 0.1 mm 2 m/S 654 mmHg 49%
    15:00 +29°C° 0.1 mm 2 m/S 654 mmHg 48%
    16:00 +29°C° 0.1 mm 2 m/S 653 mmHg 47%
    17:00 +28°C° 0.3 mm 2 m/S 653 mmHg 56%
    18:00 +26°C° 0.3 mm 2 m/S 653 mmHg 64%
    19:00 +24°C° 0.3 mm 1 m/S 653 mmHg 73%
    20:00 +24°C° 0.8 mm 1 m/S 654 mmHg 78%
    21:00 +23°C° 0.8 mm 1 m/S 654 mmHg 82%
    22:00 +22°C° 0.8 mm 1 m/S 654 mmHg 87%
    23:00 +22°C° 1.5 mm 1 m/S 654 mmHg 88%

    22 Januar, Dienstag

    Zeit Temperatur Niederschläge Wind Luftdruck Luftfeuchtigkeit
    00:00 +21°C° 1.5 mm 1 m/S 654 mmHg 90%
    01:00 +21°C° 1.5 mm 1 m/S 653 mmHg 92%
    02:00 +21°C° 0.6 mm 1 m/S 653 mmHg 92%
    03:00 +21°C° 0.6 mm 1 m/S 653 mmHg 93%
    04:00 +21°C° 0.6 mm 1 m/S 653 mmHg 93%
    05:00 +21°C° 1.5 mm 1 m/S 653 mmHg 92%
    06:00 +21°C° 1.5 mm 1 m/S 654 mmHg 91%
    07:00 +21°C° 1.5 mm 1 m/S 654 mmHg 89%
    08:00 +23°C° 1 mm 1 m/S 655 mmHg 81%
    09:00 +23°C° 1 mm 0 m/S 655 mmHg 73%
    10:00 +25°C° 1 mm 0 m/S 656 mmHg 65%
    11:00 +28°C° 0.1 mm 1 m/S 655 mmHg 58%
    12:00 +29°C° 0.1 mm 2 m/S 655 mmHg 51%
    13:00 +30°C° 0.1 mm 2 m/S 654 mmHg 44%
    14:00 +30°C° 0 mm 2 m/S 654 mmHg 44%
    15:00 +30°C° 0 mm 2 m/S 653 mmHg 44%
    16:00 +30°C° 0 mm 2 m/S 653 mmHg 43%
    17:00 +29°C° 0 mm 2 m/S 653 mmHg 48%
    18:00 +27°C° 0 mm 1 m/S 653 mmHg 53%
    19:00 +26°C° 0 mm 1 m/S 653 mmHg 58%
    20:00 +25°C° 0 mm 2 m/S 653 mmHg 61%
    21:00 +24°C° 0 mm 2 m/S 654 mmHg 64%
    22:00 +23°C° 0 mm 2 m/S 654 mmHg 67%
    23:00 +21°C° 0 mm 2 m/S 654 mmHg 71%

    23 Januar, Mittwoch

    Zeit Temperatur Niederschläge Wind Luftdruck Luftfeuchtigkeit
    00:00 +21°C° 0 mm 2 m/S 653 mmHg 75%
    01:00 +20°C° 0 mm 2 m/S 653 mmHg 80%
    02:00 +19°C° 0 mm 2 m/S 653 mmHg 83%
    03:00 +19°C° 0 mm 2 m/S 652 mmHg 87%
    04:00 +19°C° 0 mm 1 m/S 652 mmHg 90%
    05:00 +20°C° 0 mm 1 m/S 653 mmHg 88%
    06:00 +20°C° 0 mm 1 m/S 653 mmHg 85%
    07:00 +21°C° 0 mm 1 m/S 654 mmHg 83%
    08:00 +24°C° 0 mm 1 m/S 655 mmHg 71%
    09:00 +27°C° 0 mm 1 m/S 655 mmHg 60%
    10:00 +30°C° 0 mm 1 m/S 656 mmHg 48%
    11:00 +31°C° 0 mm 1 m/S 655 mmHg 42%
    12:00 +33°C° 0 mm 1 m/S 655 mmHg 35%
    13:00 +34°C° 0 mm 1 m/S 655 mmHg 29%
    14:00 +33°C° 0 mm 1 m/S 654 mmHg 31%
    15:00 +32°C° 0 mm 1 m/S 653 mmHg 33%
    16:00 +32°C° 0 mm 1 m/S 653 mmHg 35%
    17:00 +30°C° 0 mm 1 m/S 652 mmHg 41%
    18:00 +28°C° 0 mm 2 m/S 652 mmHg 46%
    19:00 +26°C° 0 mm 3 m/S 652 mmHg 52%
    20:00 +25°C° 0 mm 2 m/S 653 mmHg 59%
    21:00 +24°C° 0 mm 2 m/S 653 mmHg 65%
    22:00 +23°C° 0 mm 2 m/S 653 mmHg 72%
    23:00 +21°C° 0 mm 2 m/S 653 mmHg 75%
    Mehr zeigen